[[{"header":{"parameterUnit":"m.s-1","parameterCategory":1,"la1":30.2991,"la2":30.254,"lo1":-89.0895,"lo2":-89.0444,"dy":0.0017,"dx":0.0017,"nx":28,"ny":28,"refTime":"2023-08-08T09:00:00:Z","depth":0,"parameterNumber":2,"parameterNumberName":"U-component_of_WINDS"},"data":[0,0,0,0,0,0,0,0,0,0,0,0,0,0,0,0,0,0,0,0,0,0,0,0,0,0,0,0,0,0,0,0,0,0,0,0,0,0,0,0,0,0,0,0,0,0,0,0,0,0,0,0,0,0,0,0,0,0,4.5895,4.5896,0,4.6015,4.6016,4.6017,4.5925,4.5921,4.5917,4.5913,4.6038,4.6045,4.6052,0,0,0,0,0,0,0,0,0,0,0,0,0,4.5585,4.5591,4.5895,4.5896,4.5898,4.6015,4.6016,4.6018,4.5926,4.5921,4.5916,4.5912,4.6035,4.6044,4.6052,0,0,0,0,0,0,0,0,0,0,0,0,0,4.5714,4.5593,4.5894,4.5866,4.5864,4.6014,4.6016,4.6018,4.5927,4.5921,4.5915,4.5909,4.6033,4.6043,4.6053,4.6238,0,0,4.6086,4.609,0,0,0,0,0,0,0,0,4.5707,4.5725,4.5869,4.5868,4.5867,4.5949,4.5952,4.6092,4.5928,4.5903,4.5913,4.5906,4.6013,4.6025,4.6061,4.6244,4.6249,4.6086,4.6093,4.6097,4.61,0,0,0,0,0,0,0,4.5698,4.572,4.5942,4.5871,4.587,4.5847,4.5858,4.5978,4.599,4.5905,4.5899,4.5914,4.6011,4.6051,4.6063,4.6251,4.6086,4.6096,4.6102,4.6106,4.6588,4.6594,0,0,0,0,0,0,4.5692,4.5713,4.5938,4.5946,4.577,4.5857,4.587,4.5929,4.5989,4.5992,4.5919,4.5909,4.6036,4.6051,4.6067,4.6284,4.6097,4.6107,4.6113,4.6582,4.659,4.6597,0,0,0,0,0,0,4.5685,4.5713,4.5933,4.5828,4.5854,4.5869,4.5935,4.5934,4.5973,4.5999,4.6001,4.5957,4.6031,4.6052,4.6195,4.6287,4.6112,4.6122,4.6574,4.6584,4.6593,4.6722,0,0,0,0,0,0,4.5677,4.5711,4.5782,4.583,4.586,4.6061,4.5941,4.5941,4.5991,4.598,4.6035,4.6039,4.6028,4.618,4.6206,4.6299,4.613,4.6566,4.6579,4.659,4.671,4.6735,4.6757,0,0,0,0,0,4.5666,4.5815,4.5786,4.5814,4.5949,4.6066,4.6083,4.6068,4.5999,4.607,4.6086,4.6037,4.6274,4.6195,4.6224,4.6321,4.656,4.6575,4.6589,4.6699,4.673,4.6757,0,0,0,0,0,0,4.5778,4.582,4.5789,4.5957,4.6009,4.605,4.6139,4.6102,4.6174,4.616,4.6139,4.6152,4.6302,4.6326,4.6238,4.6501,4.6406,4.6427,4.648,4.6509,4.6533,4.6523,4.6139,0,0,0,0,0,4.5822,4.5914,4.5946,4.6091,4.6119,4.6125,4.6176,4.6159,4.6211,4.6233,4.626,4.6313,4.6398,4.6456,4.6536,4.6713,4.6723,4.6794,4.6818,4.6837,4.6855,4.6947,4.6978,4.6645,4.6644,4.6644,0,0,4.5914,4.5949,4.6008,4.6115,4.6152,4.6247,4.6144,4.6249,4.6319,4.6249,4.6385,4.6407,4.6464,4.6624,4.6696,4.6649,4.6949,4.6856,4.6871,4.6878,4.6965,4.6997,4.7025,4.6654,4.6653,4.6651,0,0,4.613,4.6167,4.629,4.633,4.6388,4.639,4.642,4.6467,4.6478,4.6614,4.6563,4.6645,4.6795,4.6837,4.6878,4.7107,4.7063,4.7134,4.7257,4.7347,4.7373,4.7396,4.7475,4.7504,4.7152,4.7152,4.7153,0,4.6238,4.6378,4.6359,4.6467,4.6514,4.6454,4.6578,4.6617,4.67,4.6733,4.6679,4.6863,4.6898,4.7065,4.712,4.7157,4.7188,4.7127,4.7371,4.7394,4.7415,4.749,4.752,4.716,4.7159,4.7159,4.7158,0,4.6506,4.6604,4.6697,4.6776,4.6834,4.695,4.6946,4.7007,4.6985,4.6994,4.7131,4.7171,4.7257,4.7296,4.7276,4.746,4.7428,4.7374,4.7276,4.7455,4.7525,4.7554,4.7172,4.7169,4.7167,4.7165,0,0,4.6796,4.6861,4.6895,4.6928,4.6987,4.7062,4.7175,4.7258,4.7309,4.7368,4.7459,4.7586,4.7534,4.7581,4.7565,4.7645,4.782,4.7579,4.758,4.762,4.8021,4.8061,4.8095,4.7792,4.7798,4.7802,4.8016,0,4.7013,4.7207,4.7192,4.7375,4.7464,4.7408,4.7505,4.7551,4.7561,4.7638,4.7649,4.7738,4.7664,4.7692,4.7768,4.7783,4.79,4.7768,4.7876,4.788,4.7861,4.8132,4.8174,4.8374,4.8043,4.8048,4.8051,0,4.7291,4.7357,4.7549,4.7591,4.7628,4.7716,4.7789,4.7864,4.7914,4.7916,4.7967,4.7937,4.8049,4.795,4.8103,4.8013,4.8056,4.807,4.8078,4.8086,4.7975,4.8144,4.8438,4.8467,4.8095,4.8091,4.8088,0,4.748,4.7617,4.7749,4.778,4.7833,4.7895,4.7921,4.7965,4.8015,4.8079,4.8111,4.8188,4.823,4.829,4.8281,4.8211,4.8436,4.8338,4.8439,4.8439,4.8487,4.8484,4.8789,4.852,4.8519,4.8519,4.8518,0,4.7722,4.7841,4.7834,4.7915,4.8045,4.8026,4.8156,4.8174,4.8214,4.8296,4.8253,4.8331,4.8316,4.8394,4.8389,4.8514,4.8534,4.8537,4.8534,4.854,4.8539,4.8567,4.8552,4.8527,4.8525,4.8524,4.8522,0,4.7955,4.7955,4.8094,4.8132,4.8144,4.8239,4.8271,4.8347,4.8353,4.8458,4.8481,4.8491,4.858,4.8578,4.868,4.8676,4.8829,4.8811,4.8812,4.8807,4.8907,4.8897,4.9239,4.9282,4.8987,4.899,4.8992,0,4.8108,4.8198,4.8245,4.8297,4.8325,4.841,4.8459,4.8444,4.8497,4.856,4.8628,4.8713,4.8779,4.8925,4.894,4.9017,4.8999,4.9114,4.9011,4.9013,4.8998,4.8991,4.8999,4.9134,4.9137,4.914,4.9142,0,4.8379,4.8374,4.8448,4.8521,4.8581,4.8639,4.8691,4.8736,4.8725,4.8788,4.8878,4.893,4.9032,4.9116,4.919,4.9215,4.9176,4.9174,4.9201,4.9207,4.9202,4.9203,4.8864,4.9166,4.9164,4.9162,4.9161,4.916,4.8575,4.8651,4.8695,4.8778,4.8815,4.8864,4.8936,4.895,4.9025,4.9106,4.9092,4.9192,4.9238,4.9332,4.9364,4.9441,4.9401,4.9441,4.945,4.946,4.947,4.9192,4.9455,4.9455,4.9454,4.9453,4.9453,0,4.8841,4.8866,4.8943,4.9016,4.908,4.9038,4.9093,4.915,4.9238,4.9284,4.9349,4.9451,4.9532,4.9554,4.9631,4.9688,4.9672,4.9709,4.9703,4.9709,4.9503,4.9471,4.972,4.972,4.972,4.972,4.972,4.972,4.8987,4.9112,4.9112,4.9254,4.9279,4.9375,4.941,4.9455,4.949,4.9606,4.9672,4.9685,4.972,4.9799,4.9871,4.9875,4.9904,4.9948,4.9945,4.9751,4.9724,4.9699,4.9668,4.9955,4.9955,5.0144,5.0145,5.0147]},{"header":{"parameterUnit":"m.s-1","parameterCategory":1,"la1":30.2991,"la2":30.254,"lo1":-89.0895,"lo2":-89.0444,"dy":0.0017,"dx":0.0017,"nx":28,"ny":28,"refTime":"2023-08-08T09:00:00:Z","depth":0,"parameterNumber":3,"parameterNumberName":"V-component_of_WINDS"},"data":[0,0,0,0,0,0,0,0,0,0,0,0,0,0,0,0,0,0,0,0,0,0,0,0,0,0,0,0,0,0,0,0,0,0,0,0,0,0,0,0,0,0,0,0,0,0,0,0,0,0,0,0,0,0,0,0,0,0,2.4917,2.4918,0,2.505,2.5051,2.5053,2.5056,2.5054,2.5053,2.5051,2.5184,2.5189,2.5194,0,0,0,0,0,0,0,0,0,0,0,0,0,2.4661,2.4666,2.4917,2.4918,2.492,2.5049,2.5051,2.5053,2.5056,2.5054,2.5052,2.505,2.5183,2.5189,2.5195,0,0,0,0,0,0,0,0,0,0,0,0,0,2.4781,2.4668,2.4916,2.4937,2.4941,2.5049,2.5051,2.5053,2.5057,2.5054,2.5052,2.5049,2.5181,2.5188,2.5196,2.5291,0,0,2.5219,2.5222,0,0,0,0,0,0,0,0,2.4774,2.479,2.4933,2.4936,2.494,2.5034,2.501,2.5133,2.5057,2.5012,2.5051,2.5048,2.5136,2.5147,2.5177,2.5297,2.5303,2.5219,2.5224,2.5227,2.5229,0,0,0,0,0,0,0,2.4766,2.4785,2.4969,2.4935,2.4939,2.4938,2.4953,2.5033,2.5086,2.5016,2.5017,2.5033,2.5137,2.517,2.518,2.5305,2.5219,2.5226,2.5231,2.5234,2.5507,2.5509,0,0,0,0,0,0,2.4754,2.4778,2.4965,2.4973,2.4849,2.4945,2.4961,2.5006,2.5085,2.5095,2.5034,2.5032,2.5158,2.5172,2.5185,2.53,2.5227,2.5234,2.5239,2.5504,2.5507,2.551,0,0,0,0,0,0,2.4748,2.4771,2.496,2.4876,2.49,2.4952,2.5003,2.501,2.5042,2.5099,2.5108,2.5058,2.5157,2.5174,2.5264,2.5305,2.5238,2.5245,2.5501,2.5505,2.5509,2.5532,0,0,0,0,0,0,2.4741,2.4769,2.4807,2.4877,2.4904,2.5038,2.5005,2.5014,2.5056,2.5054,2.5124,2.5133,2.5156,2.5253,2.5272,2.5314,2.5251,2.5497,2.5503,2.5507,2.5528,2.5537,2.5544,0,0,0,0,0,2.4732,2.4809,2.4809,2.4832,2.4953,2.5041,2.5056,2.5082,2.5059,2.5097,2.5133,2.5131,2.5297,2.5262,2.5283,2.5329,2.5495,2.5501,2.5507,2.5525,2.5535,2.5544,0,0,0,0,0,0,2.4742,2.4818,2.4819,2.4921,2.4974,2.5041,2.509,2.5093,2.5153,2.5149,2.5177,2.5193,2.5282,2.5314,2.5273,2.5423,2.5393,2.5404,2.5399,2.541,2.5417,2.5407,2.5257,0,0,0,0,0,2.4756,2.4822,2.4884,2.4968,2.4995,2.5037,2.5076,2.5091,2.5147,2.517,2.5213,2.5266,2.533,2.5372,2.5434,2.5533,2.5546,2.5574,2.5582,2.5588,2.5597,2.5648,2.5661,2.553,2.553,2.553,0,0,2.4786,2.4836,2.4876,2.4971,2.5014,2.508,2.5057,2.5128,2.5176,2.518,2.5268,2.53,2.5361,2.5455,2.5499,2.5485,2.5636,2.5596,2.56,2.5606,2.5656,2.5668,2.5679,2.5534,2.5533,2.5533,0,0,2.4874,2.4919,2.4992,2.5035,2.5101,2.5128,2.5146,2.5212,2.5234,2.5321,2.5325,2.5382,2.5493,2.5535,2.5571,2.5672,2.5671,2.5691,2.5732,2.5782,2.5792,2.5802,2.5835,2.5847,2.5699,2.57,2.57,0,2.4903,2.5003,2.5029,2.51,2.5141,2.5148,2.522,2.5261,2.5343,2.537,2.5353,2.549,2.5532,2.5635,2.5659,2.5688,2.5707,2.5683,2.5789,2.5799,2.5808,2.584,2.5853,2.5701,2.5701,2.5701,2.5701,0,2.5034,2.5103,2.5154,2.5233,2.5279,2.5351,2.5386,2.5429,2.5439,2.5468,2.5555,2.5605,2.5677,2.5702,2.5713,2.5805,2.5794,2.5783,2.5753,2.5821,2.5852,2.5865,2.5704,2.5703,2.5703,2.5702,0,0,2.5133,2.5224,2.5242,2.5277,2.5348,2.5401,2.5471,2.5541,2.5577,2.5632,2.569,2.5782,2.5771,2.5812,2.5828,2.5872,2.5945,2.5855,2.5856,2.5868,2.6046,2.6053,2.6068,2.5945,2.5947,2.5949,2.6041,0,2.5227,2.5354,2.5378,2.5487,2.555,2.5556,2.5616,2.5665,2.5693,2.5749,2.5779,2.5843,2.5825,2.5849,2.5893,2.5927,2.598,2.592,2.5997,2.5999,2.5981,2.6084,2.6093,2.6177,2.6053,2.6055,2.6057,0,2.5355,2.5413,2.5528,2.5588,2.5616,2.567,2.5734,2.5788,2.5843,2.586,2.5904,2.5913,2.5984,2.5951,2.6047,2.6005,2.6038,2.6058,2.6062,2.607,2.6032,2.6093,2.6205,2.6217,2.6076,2.6075,2.6073,0,2.5413,2.552,2.5603,2.5632,2.5705,2.5743,2.5774,2.5827,2.5866,2.5922,2.5947,2.601,2.6044,2.6092,2.6117,2.6091,2.6211,2.618,2.6225,2.6224,2.625,2.6248,2.6367,2.6272,2.6272,2.6272,2.6272,0,2.5515,2.5585,2.5629,2.568,2.5757,2.5783,2.5859,2.589,2.5935,2.599,2.5999,2.605,2.6081,2.6136,2.6156,2.6231,2.6247,2.6261,2.6265,2.6259,2.6257,2.6281,2.6275,2.6275,2.6274,2.6274,2.6273,0,2.5594,2.5627,2.5716,2.5777,2.5794,2.5848,2.5899,2.5947,2.5974,2.6043,2.6061,2.6102,2.6167,2.6197,2.6277,2.629,2.6375,2.6376,2.6357,2.6358,2.6401,2.6396,2.6538,2.6557,2.6451,2.6452,2.6453,0,2.5656,2.571,2.5776,2.5814,2.5847,2.5907,2.5947,2.5974,2.6015,2.6079,2.6119,2.6184,2.6237,2.6339,2.6376,2.6436,2.6437,2.6483,2.6447,2.6438,2.6436,2.6432,2.6436,2.6489,2.6491,2.6491,2.6492,0,2.5763,2.5776,2.5834,2.5897,2.5944,2.5995,2.6045,2.6074,2.6108,2.6153,2.622,2.6261,2.6342,2.6405,2.6467,2.6498,2.65,2.6503,2.6516,2.6511,2.6497,2.6503,2.6373,2.65,2.6499,2.6498,2.6498,2.6498,2.5835,2.5882,2.5935,2.5998,2.6038,2.6083,2.6131,2.6163,2.6219,2.6287,2.6299,2.6369,2.6418,2.6502,2.6535,2.6588,2.6577,2.6597,2.6602,2.6606,2.6607,2.6489,2.66,2.66,2.66,2.6599,2.6599,0,2.594,2.5974,2.6032,2.6101,2.615,2.6148,2.6202,2.6242,2.6304,2.6351,2.6403,2.6477,2.6538,2.6578,2.6639,2.6674,2.6676,2.6689,2.6686,2.6693,2.6615,2.6596,2.6686,2.6686,2.6686,2.6686,2.6686,2.6686,2.6001,2.6079,2.6098,2.6195,2.6229,2.6298,2.6328,2.6369,2.6406,2.6489,2.654,2.6566,2.6609,2.6673,2.6728,2.6738,2.6759,2.6772,2.6781,2.6708,2.6698,2.669,2.6673,2.6777,2.6777,2.6854,2.6855,2.6855]}]]